www.pogodaiklimat.ru
ПОГОДА в Мариэтте
Время
и дата
09:50 20.04
10:50 20.04
11:50 20.04
12:50 20.04
13:50 20.04
14:50 20.04
15:50 20.04
16:50 20.04
17:50 20.04
18:50 20.04
19:50 20.04
20:50 20.04
21:50 20.04
22:50 20.04
23:50 20.04
00:50 21.04
01:50 21.04
02:50 21.04
03:50 21.04
04:50 21.04
05:50 21.04
06:50 21.04
07:50 21.04
08:50 21.04
09:50 21.04
10:50 21.04
11:48 21.04
11:50 21.04
12:50 21.04
13:50 21.04
14:50 21.04
15:50 21.04
16:50 21.04
17:50 21.04
18:50 21.04
19:50 21.04
20:50 21.04
21:50 21.04
22:50 21.04
23:50 21.04
00:50 22.04
01:50 22.04
02:50 22.04
03:50 22.04
04:50 22.04
07:50 22.04
08:50 22.04
09:50 22.04
Ветер
(напр.,м/с)
Видим. Явления Облачность Т
(С)
Тd
(С)
f
(%)
Тe
(С)
Тes
(С)
Комфортность P
(гПа)
Po
(гПа)
Тmin
(С)
Tmax
(С)
R
(мм)
R24
(мм)
S
(см)
штиль 0 16 км ясно +18.9 +6.7 45 +19 +30 989.4 979.5
З 2 16 км ясно +20.6 +6.1 39 +22 +30 комфорт 989.3 979.5
Ю 2 16 км 2/2 1950 м +21.7 +6.1 36 +22 +29 комфорт 988.8 978.8
Ю 2
{4}
16 км 5/5 1950 м +22.2 +6.1 35 +23 +29 комфорт 987.8 977.9 +9.4 +22.2
Ю 1
{4}
16 км 5/0 2250 м
[Ac]
+22.8 +6.7 35 +23 +34 комфорт 987.2 977.2
Ю 2 16 км 8/0 2250 м
[Ac]
+22.8 +5.0 31 +23 +28 комфорт 986.5 976.5
ЮЗ 2 16 км 5/0 2400 м
[Ac]
+23.3 +5.0 30 +23 +28 комфорт 985.6 975.9
Ю 2
{4}
16 км 5/0 2400 м
[Ac]
+22.8 +5.6 33 +23 +27 комфорт 985.5 975.6
ЮЗ 2 16 км 5/0 2400 м
[Ac]
+22.8 +5.0 31 +23 +25 комфорт 985.2 975.2
ЮЗ 1 16 км 2/0 2400 м
[Ac]
+21.1 +5.0 35 +22 +23 комфорт 985.3 975.6 +21.1 +23.3
штиль 0 16 км ясно +18.9 +6.1 43 +19 +19 985.4 975.6
З 1 16 км 5/0 2400 м
[Ac]
+17.8 +7.8 52 +18 +18 986.1 976.2
Ю 1 16 км 8/0 2250 м
[Ac]
+16.1 +7.8 58 +16 +16 986.5 976.5
штиль 0 16 км 10/0 2400 м
[Ac]
+15.0 +8.3 64 +15 +15 986.4 976.5
ЮЗ 1 16 км 8/0 2250 м
[Ac]
+15.0 +7.8 62 +15 +15 986.2 976.5
ЮЗ 1 16 км 5/0 2250 м
[Ac]
+13.9 +7.8 67 +13 +13 986.2 976.5 +13.9 +21.1
З 1 16 км 2/0 2250 м
[Ac]
+15.6 +6.1 53 +15 +15 985.8 975.9
З 2 16 км ясно +13.9 +6.1 59 +13 +13 985.3 975.6
З 2 16 км ясно +13.3 +6.1 62 +12 +12 985.4 975.6
З 2 16 км ясно +13.3 +6.1 62 +11 +11 985.8 976.2
З 2 16 км 5/0 3600 м
[Ac]
+11.7 +6.1 68 +10 +10 987.0 977.2
СЗ 2
{4}
16 км ясно +10.0 +4.4 68 +7 +7 988.2 978.2 +10.0 +15.6
СЗ 2
{4}
16 км ясно +10.0 +3.9 66 +7 +8 988.5 978.8
СЗ 3
{4}
16 км ясно +10.0 +3.3 63 +7 +8 989.3 979.5
СЗ 2
{4}
16 км 5/5 780 м +10.6 +2.8 58 +8 +10 989.9 980.1
СЗ 3
{5}
16 км 8/8 840 м +10.6 +2.8 58 +7 +8 990.9 980.8
СЗ 2
{5}
16 км 5/5 840 м +10.0 +1.0 54 +7 +12 981.1
СЗ 2
{5}
16 км 5/5 840 м +10.0 +0.6 52 +7 +12 991.2 981.1
СЗ 2
{4}
16 км 5/5 1140 м +10.6 0.0 48 +9 +15 991.0 981.1 +9.4 +11.1
СЗ 3
{5}
16 км ясно +10.6 -2.2 41 +8 +13 991.0 981.1
СЗ 3
{4}
16 км ясно +11.1 -2.2 39 +9 +15 991.0 981.1
СЗ 2
{4}
16 км ясно +11.7 -2.2 38 +10 +17 990.8 980.8
СЗ 2
{4}
16 км ясно +11.7 -3.3 35 +10 +14 990.9 980.8
СЗ 2
{4}
16 км ясно +10.6 -3.3 38 +8 +11 991.3 981.1
С 2 16 км ясно +9.4 -3.3 41 +7 +8 991.8 981.8 +9.4 +11.7
нст 1 16 км ясно +7.8 -3.3 45 +6 +6 992.7 982.7
нст 1 16 км ясно +6.7 -3.9 47 +4 +4 993.5 983.4
нст 1 16 км ясно +6.1 -3.9 49 +4 +4 994.1 984.0
СЗ 1 16 км ясно +5.6 -3.9 50 +4 +4 994.6 984.7
штиль 0 16 км ясно +4.4 -2.8 59 +4 +4 994.9 984.7
СЗ 1 16 км ясно +3.9 -2.8 62 +2 +2 994.5 984.4 +3.9 +9.4
СЗ 1 16 км ясно +3.9 -2.2 64 +1 +1 994.4 984.4
штиль 0 16 км ясно +2.2 -2.2 73 +1 +1 994.5 984.4
штиль 0 16 км ясно +1.1 -1.1 85 0 0 994.6 984.7
штиль 0 16 км ясно +1.1 -1.1 85 0 0 994.8 984.7
З 1 19 км ясно +6.0 0.0 65 +4 +5 986.3
З 1 19 км ясно +8.0 0.0 57 +6 +10 986.7
штиль 0 16 км ясно +11.0 -6.0 30 +11 +22 опасность
простуды
986.7
Местоположение метеостанции Cobb County-McCollum Field Airport: широта 34.0131 долгота -84.5986 высота над уровнем моря 317 м.
В архиве по умолчанию представлена погода в Мариэтте за последние 1-2 суток. Обновление информации о фактической погоде в базе происходит ежечасно! Архивные данные за месяц целиком и за предыдущие месяцы Вы можете получить, выбрав интересующий диапазон дат из раскрывающегося списка и нажав кнопку "Ввод!".
Внимание! Архив погоды МЕТАР в базе сайта по станциям, не включенным в климатический монитор, хранится не более 60 дней. Нет смысла пытаться выбрать более раннюю дату.
*Определитесь, кто Вы:
Внимание! Время в таблицах - местное (без учета летнего времени). Для получения всемирного времени необходимо вычесть поправку, которая равна -5 ч.
Смотрите также архив погоды в соседних городах и на ближайших метеорологических станциях:
Партнеры нашего сайта:      
Пояснения к столбцам:
  • Ветер - указаны скорость ветра в м/с - средняя за 10 мин, порывы в срок и между сроками (в фигурных скобках) и направление, откуда дует ветер: С - северный,
  • СВ - северо-восточный, В - восточный, ЮВ - юго-восточный, Ю - южный, ЮЗ - юго-западный, З - западный, СЗ - северо-западный.
  • Видимость - горизонтальная дальность видимости в метрах или километрах. При видимости от 1 до 10 км при отсутствии осадков обычно наблюдается дымка, при ухудшении видимости до 1 км и менее - туман. В сухую погоду видимость может ухудшаться дымом, пылью или мглою.
  • Явления - указаны атмосферные явления, наблюдавшиеся в срок или в последний час перед сроком; фигурными скобками обозначены явления, наблюдавшиеся между сроками (за 1-3 часа до срока); квадратными скобками обозначены град или гололедные отложения с указанием их диаметра в мм.
  • Облачность - указаны через наклонную черту общая и нижняя облачность в баллах и высота нижней границы облаков в метрах; квадратными скобками обозначены формы облаков: Ci - перистые, Cs - перисто-слоистые, Cc - перисто-кучевые, Ac - высококучевые, As - высокослоистые, Sc - слоисто-кучевые, Ns - слоисто-дождевые, Cu - кучевые, Cb - кучево-дождевые. Подробнее классификацию облаков см. в Атласе облаков (PDF).
  • T - Температура воздуха - температура, измеренная на высоте 2 м над землей.
  • Td - Температура точки росы - температура, при понижении до которой содержащийся в воздухе водяной пар достигнет насыщения.
  • f - Относительная влажность воздуха - влажноcть воздуха, измеренная на высоте 2 м над землей.
  • Te - Эффективная температура - температура, которую ощущает одетый по сезону человек в тени. Характеристика душности погоды. При расчете учитывается влияние влажности воздуха и скорости ветра на теплоощущения человека.
  • Tes - Эффективная температура на солнце - температура, которую ощущает человек, с поправкой на солнечный нагрев. Характеристика знойности погоды. Зависит от высоты солнца над горизонтом, облачности и скорости ветра. Ночью, в пасмурную погоду, а также при ветре 12 м/с и более поправка равна нулю.
  • P - Атмосферное давление - приведенное к уровню моря атмосферное давление.
  • Po - Атмосферное давление - измеренное на уровне метеостанции атмосферное давление.
  • Tmin - Минимальная температура - минимум температуры воздуха на высоте 2 м над землей.
  • Tmax - Максимальная температура - максимум температуры воздуха на высоте 2 м над землей.
  • R - Количество осадков - Количество выпавших осадков за период времени, мм. При наведении курсора мыши на число - период времени, за который выпало указанное количество осадков.
  • R24 - Количество осадков - Количество выпавших осадков за 24 часа, мм.
  • S - Снежный покров - Высота снежного покрова, см. При наведении курсора мыши на число - состояние снежного покрова и степень покрытия местности в баллах.